Time,TemperatureF,DewpointF,PressureIn,WindDirection,WindDirectionDegrees,WindSpeedMPH,WindSpeedGustMPH,Humidity,HourlyPrecipIn,Conditions,Clouds,dailyrainin,SoftwareType,DateUTC
2013-08-31 00:02:00,49.8,43.2,29.57,SW,225,8.1,8.1,78,0.00,RA,,0.00,WeatherDisplay:10.37,2013-08-30 23:02:00,
2013-08-31 00:07:00,49.8,43.2,29.56,SSW,202,6.9,6.9,78,0.00,RA,,0.00,WeatherDisplay:10.37,2013-08-30 23:07:00,
2013-08-31 00:12:00,49.8,43.2,29.57,West,270,4.6,4.6,78,0.00,CLR,,0.00,WeatherDisplay:10.37,2013-08-30 23:12:00,
2013-08-31 00:17:00,49.8,43.2,29.57,WNW,292,3.5,3.5,78,0.00,CLR,,0.00,WeatherDisplay:10.37,2013-08-30 23:17:00,
2013-08-31 00:22:00,49.8,43.2,29.57,WSW,248,0.0,0.0,78,0.00,CLR,,0.00,WeatherDisplay:10.37,2013-08-30 23:22:00,
2013-08-31 00:27:00,49.8,43.2,29.57,WSW,248,1.2,1.2,78,0.00,CLR,,0.00,WeatherDisplay:10.37,2013-08-30 23:27:00,
2013-08-31 00:32:00,49.8,43.2,29.57,SSE,158,1.2,1.2,78,0.00,CLR,,0.00,WeatherDisplay:10.37,2013-08-30 23:32:00,
2013-08-31 00:37:00,49.6,43.1,29.58,SSE,158,2.3,2.3,78,0.00,CLR,,0.00,WeatherDisplay:10.37,2013-08-30 23:37:00,
2013-08-31 00:42:00,49.5,42.9,29.58,South,180,3.5,3.5,78,0.00,CLR,,0.00,WeatherDisplay:10.37,2013-08-30 23:42:00,
2013-08-31 00:47:00,49.5,42.9,29.58,SSE,158,9.4,9.4,78,0.00,CLR,,0.00,WeatherDisplay:10.37,2013-08-30 23:47:00,
2013-08-31 00:52:00,48.9,42.4,29.58,South,180,10.4,10.4,78,0.00,CLR,,0.00,WeatherDisplay:10.37,2013-08-30 23:52:00,
2013-08-31 00:57:00,48.7,42.2,29.58,SSW,202,3.5,4.6,78,0.00,CLR,,0.00,WeatherDisplay:10.37,2013-08-30 23:57:00,
2013-08-31 01:02:00,48.7,42.2,29.59,SE,135,4.6,4.6,78,0.00,CLR,,0.00,WeatherDisplay:10.37,2013-08-31 00:02:00,
2013-08-31 01:07:00,48.7,42.5,29.58,SSW,202,2.9,2.9,79,0.00,CLR,,0.00,WeatherDisplay:10.37,2013-08-31 00:07:00,
2013-08-31 01:12:00,48.7,42.5,29.58,WSW,248,5.8,5.8,79,0.00,CLR,,0.00,WeatherDisplay:10.37,2013-08-31 00:12:00,
2013-08-31 01:17:00,48.7,42.5,29.58,WNW,292,3.5,3.5,79,0.00,CLR,,0.00,WeatherDisplay:10.37,2013-08-31 00:17:00,
2013-08-31 01:22:00,48.9,42.7,29.58,South,180,1.2,1.2,79,0.00,CLR,,0.00,WeatherDisplay:10.37,2013-08-31 00:22:00,
2013-08-31 01:27:00,48.9,42.7,29.58,SW,225,3.8,3.8,79,0.00,CLR,,0.00,WeatherDisplay:10.37,2013-08-31 00:27:00,
2013-08-31 01:32:00,48.7,42.5,29.59,SW,225,5.8,5.8,79,0.00,CLR,,0.00,WeatherDisplay:10.37,2013-08-31 00:32:00,
2013-08-31 01:37:00,48.7,42.5,29.59,SW,225,5.8,5.8,79,0.00,CLR,,0.00,WeatherDisplay:10.37,2013-08-31 00:37:00,
2013-08-31 01:42:00,48.7,42.8,29.58,SSW,202,1.2,1.3,80,0.00,CLR,,0.00,WeatherDisplay:10.37,2013-08-31 00:42:00,
2013-08-31 01:47:00,48.7,42.8,29.59,SSE,158,4.6,4.6,80,0.00,CLR,,0.00,WeatherDisplay:10.37,2013-08-31 00:47:00,
2013-08-31 01:52:00,48.7,42.8,29.59,SSE,158,4.6,4.7,80,0.00,CLR,,0.00,WeatherDisplay:10.37,2013-08-31 00:52:00,
2013-08-31 01:57:00,48.6,42.7,29.59,SSW,202,3.1,3.1,80,0.00,CLR,,0.00,WeatherDisplay:10.37,2013-08-31 00:57:00,
2013-08-31 02:02:00,48.7,42.8,29.60,SSE,158,3.5,3.5,80,0.00,CLR,,0.00,WeatherDisplay:10.37,2013-08-31 01:02:00,
2013-08-31 02:07:00,48.7,42.8,29.60,SSE,158,4.9,4.9,80,0.00,CLR,,0.00,WeatherDisplay:10.37,2013-08-31 01:07:00,
2013-08-31 02:12:00,48.6,43.0,29.60,SSE,158,4.6,4.6,81,0.00,CLR,,0.00,WeatherDisplay:10.37,2013-08-31 01:12:00,
2013-08-31 02:17:00,48.6,43.0,29.60,SSE,158,3.6,4.0,81,0.00,CLR,,0.00,WeatherDisplay:10.37,2013-08-31 01:17:00,
2013-08-31 02:22:00,48.6,43.0,29.60,SSW,202,3.5,3.5,81,0.00,CLR,,0.00,WeatherDisplay:10.37,2013-08-31 01:22:00,
2013-08-31 02:27:00,48.6,43.0,29.60,South,180,3.5,4.0,81,0.00,CLR,,0.00,WeatherDisplay:10.37,2013-08-31 01:27:00,
2013-08-31 02:32:00,48.7,43.2,29.60,SW,225,4.6,5.1,81,0.00,CLR,,0.00,WeatherDisplay:10.37,2013-08-31 01:32:00,
2013-08-31 02:37:00,48.6,43.0,29.60,South,180,2.7,2.7,81,0.00,CLR,,0.00,WeatherDisplay:10.37,2013-08-31 01:37:00,
2013-08-31 02:42:00,48.7,43.2,29.60,WSW,248,5.8,5.8,81,0.00,CLR,,0.00,WeatherDisplay:10.37,2013-08-31 01:42:00,
2013-08-31 02:47:00,48.7,43.2,29.60,South,180,3.6,3.6,81,0.00,CLR,,0.00,WeatherDisplay:10.37,2013-08-31 01:47:00,
2013-08-31 02:52:00,48.7,43.5,29.59,SSW,202,3.5,3.5,82,0.00,CLR,,0.00,WeatherDisplay:10.37,2013-08-31 01:52:00,
2013-08-31 02:57:00,48.7,43.5,29.60,SSW,202,7.4,7.4,82,0.00,CLR,,0.00,WeatherDisplay:10.37,2013-08-31 01:57:00,
2013-08-31 03:02:00,48.7,43.5,29.60,South,180,3.5,3.5,82,0.00,CLR,,0.00,WeatherDisplay:10.37,2013-08-31 02:02:00,
2013-08-31 03:07:00,48.9,43.7,29.60,SSW,202,3.8,3.8,82,0.00,CLR,,0.00,WeatherDisplay:10.37,2013-08-31 02:07:00,
2013-08-31 03:12:00,48.9,43.7,29.60,South,180,4.6,4.6,82,0.00,CLR,,0.00,WeatherDisplay:10.37,2013-08-31 02:12:00,
2013-08-31 03:17:00,49.1,43.8,29.60,WSW,248,5.8,5.8,82,0.00,CLR,,0.00,WeatherDisplay:10.37,2013-08-31 02:17:00,
2013-08-31 03:22:00,49.1,43.8,29.61,South,180,8.1,8.1,82,0.00,CLR,,0.00,WeatherDisplay:10.37,2013-08-31 02:22:00,
2013-08-31 03:27:00,49.1,43.8,29.61,WSW,248,3.5,3.5,82,0.00,CLR,,0.00,WeatherDisplay:10.37,2013-08-31 02:27:00,
2013-08-31 03:32:00,49.3,44.3,29.61,WNW,292,2.3,2.3,83,0.00,CLR,,0.00,WeatherDisplay:10.37,2013-08-31 02:32:00,
2013-08-31 03:37:00,49.3,44.0,29.61,SW,225,8.1,8.1,82,0.00,CLR,,0.00,WeatherDisplay:10.37,2013-08-31 02:37:00,
2013-08-31 03:42:00,49.3,44.0,29.61,South,180,5.8,5.8,82,0.00,CLR,,0.00,WeatherDisplay:10.37,2013-08-31 02:42:00,
2013-08-31 03:47:00,49.3,44.0,29.61,South,180,5.8,5.8,82,0.00,CLR,,0.00,WeatherDisplay:10.37,2013-08-31 02:47:00,
2013-08-31 03:52:00,49.3,44.0,29.61,WSW,248,4.6,4.6,82,0.00,CLR,,0.00,WeatherDisplay:10.37,2013-08-31 02:52:00,
2013-08-31 03:57:00,49.3,44.0,29.61,SW,225,4.6,4.6,82,0.00,CLR,,0.00,WeatherDisplay:10.37,2013-08-31 02:57:00,
2013-08-31 04:02:00,49.3,44.0,29.62,WSW,248,6.9,7.2,82,0.00,CLR,,0.00,WeatherDisplay:10.37,2013-08-31 03:02:00,
2013-08-31 04:07:00,49.3,44.0,29.62,SSW,202,5.8,6.3,82,0.00,CLR,,0.00,WeatherDisplay:10.37,2013-08-31 03:07:00,
2013-08-31 04:12:00,49.1,43.8,29.62,SW,225,6.9,7.1,82,0.00,CLR,,0.00,WeatherDisplay:10.37,2013-08-31 03:12:00,
2013-08-31 04:17:00,49.1,43.8,29.62,SW,225,7.6,7.6,82,0.00,CLR,,0.00,WeatherDisplay:10.37,2013-08-31 03:17:00,
2013-08-31 04:22:00,48.9,43.7,29.62,WSW,248,6.9,6.9,82,0.00,CLR,,0.00,WeatherDisplay:10.37,2013-08-31 03:22:00,
2013-08-31 04:27:00,48.9,43.7,29.62,SW,225,3.5,3.8,82,0.00,CLR,,0.00,WeatherDisplay:10.37,2013-08-31 03:27:00,
2013-08-31 04:32:00,48.9,43.7,29.62,WSW,248,3.5,3.5,82,0.00,CLR,,0.00,WeatherDisplay:10.37,2013-08-31 03:32:00,
2013-08-31 04:37:00,48.9,44.0,29.62,WSW,248,7.6,7.6,83,0.00,CLR,,0.00,WeatherDisplay:10.37,2013-08-31 03:37:00,
2013-08-31 04:42:00,48.9,44.0,29.62,West,270,2.3,2.3,83,0.00,CLR,,0.00,WeatherDisplay:10.37,2013-08-31 03:42:00,
2013-08-31 04:47:00,48.9,44.0,29.62,NNW,338,2.0,2.0,83,0.00,CLR,,0.00,WeatherDisplay:10.37,2013-08-31 03:47:00,
2013-08-31 04:52:00,48.9,44.0,29.62,South,180,4.6,4.9,83,0.00,CLR,,0.00,WeatherDisplay:10.37,2013-08-31 03:52:00,
2013-08-31 04:57:00,48.9,44.0,29.62,South,180,3.6,3.6,83,0.00,CLR,,0.00,WeatherDisplay:10.37,2013-08-31 03:57:00,
2013-08-31 05:01:00,48.9,44.0,29.62,South,180,9.2,9.2,83,0.00,CLR,,0.00,WeatherDisplay:10.37,2013-08-31 04:01:00,
2013-08-31 05:06:00,49.1,44.2,29.62,SSW,202,4.6,4.6,83,0.00,CLR,,0.00,WeatherDisplay:10.37,2013-08-31 04:06:00,
2013-08-31 05:11:00,49.1,44.2,29.62,SW,225,8.1,8.1,83,0.00,CLR,,0.00,WeatherDisplay:10.37,2013-08-31 04:11:00,
2013-08-31 05:16:00,49.1,44.2,29.63,WSW,248,5.8,6.2,83,0.00,CLR,,0.00,WeatherDisplay:10.37,2013-08-31 04:16:00,
2013-08-31 05:21:00,49.1,44.2,29.63,SSE,158,2.3,6.8,83,0.00,CLR,,0.00,WeatherDisplay:10.37,2013-08-31 04:21:00,
2013-08-31 05:26:00,49.1,44.2,29.63,SE,135,3.5,3.5,83,0.00,CLR,,0.00,WeatherDisplay:10.37,2013-08-31 04:26:00,
2013-08-31 05:31:00,49.3,44.3,29.63,WSW,248,4.5,4.5,83,0.00,CLR,,0.00,WeatherDisplay:10.37,2013-08-31 04:31:00,
2013-08-31 05:36:00,49.3,44.3,29.64,SW,225,2.3,2.3,83,0.00,CLR,,0.00,WeatherDisplay:10.37,2013-08-31 04:36:00,
2013-08-31 05:41:00,49.3,44.3,29.63,WSW,248,2.3,2.3,83,0.00,CLR,,0.00,WeatherDisplay:10.37,2013-08-31 04:41:00,
2013-08-31 05:46:00,49.3,44.3,29.63,WSW,248,5.8,5.8,83,0.00,CLR,,0.00,WeatherDisplay:10.37,2013-08-31 04:46:00,
2013-08-31 05:51:00,49.3,44.3,29.63,SW,225,9.2,9.2,83,0.00,CLR,,0.00,WeatherDisplay:10.37,2013-08-31 04:51:00,
2013-08-31 05:56:00,49.3,44.3,29.63,WNW,292,3.5,3.5,83,0.00,CLR,,0.00,WeatherDisplay:10.37,2013-08-31 04:56:00,
2013-08-31 06:01:00,49.3,44.3,29.64,WSW,248,1.2,2.3,83,0.00,CLR,,0.00,WeatherDisplay:10.37,2013-08-31 05:01:00,
2013-08-31 06:06:00,49.3,44.3,29.63,WSW,248,2.3,2.3,83,0.00,CLR,,0.00,WeatherDisplay:10.37,2013-08-31 05:06:00,
2013-08-31 06:11:00,49.3,44.3,29.64,SW,225,3.5,3.5,83,0.00,CLR,,0.00,WeatherDisplay:10.37,2013-08-31 05:11:00,
2013-08-31 06:16:00,49.3,44.3,29.64,WSW,248,2.3,2.3,83,0.00,CLR,,0.00,WeatherDisplay:10.37,2013-08-31 05:16:00,
2013-08-31 06:21:00,49.3,44.3,29.64,SW,225,4.6,4.7,83,0.00,CLR,,0.00,WeatherDisplay:10.37,2013-08-31 05:21:00,
2013-08-31 06:26:00,49.1,44.2,29.64,WSW,248,6.9,7.2,83,0.00,CLR,,0.00,WeatherDisplay:10.37,2013-08-31 05:26:00,
2013-08-31 06:31:00,49.1,44.2,29.64,SW,225,12.7,12.7,83,0.00,CLR,,0.00,WeatherDisplay:10.37,2013-08-31 05:31:00,
2013-08-31 06:36:00,48.9,44.3,29.64,West,270,11.5,11.5,84,0.00,CLR,,0.00,WeatherDisplay:10.37,2013-08-31 05:36:00,
2013-08-31 06:41:00,48.9,44.3,29.64,SSW,202,9.2,9.2,84,0.00,CLR,,0.00,WeatherDisplay:10.37,2013-08-31 05:41:00,
2013-08-31 06:46:00,48.9,44.3,29.64,WSW,248,4.6,4.6,84,0.00,CLR,,0.00,WeatherDisplay:10.37,2013-08-31 05:46:00,
2013-08-31 06:51:00,48.9,44.3,29.64,SSW,202,2.3,4.5,84,0.00,CLR,,0.00,WeatherDisplay:10.37,2013-08-31 05:51:00,
2013-08-31 06:56:00,48.9,44.3,29.65,SSW,202,2.3,2.3,84,0.00,CLR,,0.00,WeatherDisplay:10.37,2013-08-31 05:56:00,
2013-08-31 07:01:00,48.9,44.3,29.65,WSW,248,5.8,7.6,84,0.00,CLR,,0.00,WeatherDisplay:10.37,2013-08-31 06:01:00,
2013-08-31 07:06:00,48.9,44.3,29.64,SW,225,5.8,5.8,84,0.00,CLR,,0.00,WeatherDisplay:10.37,2013-08-31 06:06:00,
2013-08-31 07:11:00,48.9,44.3,29.64,West,270,2.3,3.3,84,0.00,CLR,,0.00,WeatherDisplay:10.37,2013-08-31 06:11:00,
2013-08-31 07:16:00,49.1,44.5,29.64,West,270,11.5,11.5,84,0.00,CLR,,0.00,WeatherDisplay:10.37,2013-08-31 06:16:00,
2013-08-31 07:21:00,49.1,44.5,29.64,WSW,248,1.2,10.1,84,0.00,CLR,,0.00,WeatherDisplay:10.37,2013-08-31 06:21:00,
2013-08-31 07:26:00,49.1,44.5,29.64,SE,135,3.5,3.5,84,0.00,CLR,,0.00,WeatherDisplay:10.37,2013-08-31 06:26:00,
2013-08-31 07:31:00,49.1,44.5,29.65,WSW,248,3.5,3.5,84,0.00,CLR,,0.00,WeatherDisplay:10.37,2013-08-31 06:31:00,
2013-08-31 07:36:00,49.1,44.5,29.65,WSW,248,6.9,6.9,84,0.00,CLR,,0.00,WeatherDisplay:10.37,2013-08-31 06:36:00,
2013-08-31 07:41:00,49.1,44.5,29.65,SSW,202,4.6,4.6,84,0.00,CLR,,0.00,WeatherDisplay:10.37,2013-08-31 06:41:00,
2013-08-31 07:46:00,49.3,44.6,29.65,SSW,202,3.5,3.5,84,0.00,CLR,,0.00,WeatherDisplay:10.37,2013-08-31 06:46:00,
2013-08-31 07:51:00,49.3,44.6,29.65,WSW,248,2.3,2.5,84,0.00,CLR,,0.00,WeatherDisplay:10.37,2013-08-31 06:51:00,
2013-08-31 07:56:00,49.3,44.6,29.66,SW,225,2.3,2.3,84,0.00,CLR,,0.00,WeatherDisplay:10.37,2013-08-31 06:56:00,
2013-08-31 08:01:00,49.3,45.0,29.66,SW,225,8.1,8.1,85,0.00,CLR,,0.00,WeatherDisplay:10.37,2013-08-31 07:01:00,
2013-08-31 08:06:00,49.6,45.0,29.66,WSW,248,6.9,6.9,84,0.00,CLR,,0.00,WeatherDisplay:10.37,2013-08-31 07:06:00,
2013-08-31 08:11:00,49.6,45.0,29.66,ESE,112,0.0,6.4,84,0.00,CLR,,0.00,WeatherDisplay:10.37,2013-08-31 07:11:00,
2013-08-31 08:16:00,49.8,45.2,29.66,South,180,4.6,4.6,84,0.00,CLR,,0.00,WeatherDisplay:10.37,2013-08-31 07:16:00,
2013-08-31 08:21:00,49.8,45.2,29.66,South,180,2.3,2.7,84,0.00,CLR,,0.00,WeatherDisplay:10.37,2013-08-31 07:21:00,
2013-08-31 08:26:00,50.2,45.5,29.66,WNW,292,5.8,5.8,84,0.00,CLR,,0.00,WeatherDisplay:10.37,2013-08-31 07:26:00,
2013-08-31 08:31:00,50.2,45.5,29.66,SW,225,3.5,3.5,84,0.00,CLR,,0.00,WeatherDisplay:10.37,2013-08-31 07:31:00,
2013-08-31 08:36:00,50.4,45.7,29.66,SSW,202,5.8,5.8,84,0.00,CLR,,0.00,WeatherDisplay:10.37,2013-08-31 07:36:00,
2013-08-31 08:41:00,50.5,45.9,29.66,South,180,2.3,3.7,84,0.00,CLR,,0.00,WeatherDisplay:10.37,2013-08-31 07:41:00,
2013-08-31 08:46:00,50.5,45.9,29.66,WSW,248,6.9,7.4,84,0.00,CLR,,0.00,WeatherDisplay:10.37,2013-08-31 07:46:00,
2013-08-31 08:51:00,50.7,45.7,29.66,NW,315,5.8,5.8,83,0.00,CLR,,0.00,WeatherDisplay:10.37,2013-08-31 07:51:00,
2013-08-31 08:56:00,50.7,45.7,29.67,West,270,10.4,10.4,83,0.00,CLR,,0.00,WeatherDisplay:10.37,2013-08-31 07:56:00,
2013-08-31 09:01:00,50.7,45.7,29.67,SW,225,5.8,6.8,83,0.00,CLR,,0.00,WeatherDisplay:10.37,2013-08-31 08:01:00,
2013-08-31 09:06:00,51.1,46.1,29.67,WSW,248,4.6,4.6,83,0.00,CLR,,0.00,WeatherDisplay:10.37,2013-08-31 08:06:00,
2013-08-31 09:11:00,51.1,46.1,29.68,WSW,248,12.7,12.7,83,0.00,CLR,,0.00,WeatherDisplay:10.37,2013-08-31 08:11:00,
2013-08-31 09:16:00,51.4,46.4,29.68,SW,225,15.0,15.0,83,0.00,CLR,,0.00,WeatherDisplay:10.37,2013-08-31 08:16:00,
2013-08-31 09:21:00,51.4,46.4,29.67,WNW,292,3.5,12.7,83,0.00,CLR,,0.00,WeatherDisplay:10.37,2013-08-31 08:21:00,
2013-08-31 09:26:00,51.6,46.6,29.67,SW,225,12.7,12.7,83,0.00,CLR,,0.00,WeatherDisplay:10.37,2013-08-31 08:26:00,
2013-08-31 09:31:00,51.6,46.6,29.67,WNW,292,8.1,8.1,83,0.00,CLR,,0.00,WeatherDisplay:10.37,2013-08-31 08:31:00,
2013-08-31 09:36:00,51.6,46.6,29.68,NNE,22,3.5,3.5,83,0.00,CLR,,0.00,WeatherDisplay:10.37,2013-08-31 08:36:00,
2013-08-31 09:41:00,52.0,47.0,29.68,North,0,4.6,6.5,83,0.00,CLR,,0.00,WeatherDisplay:10.37,2013-08-31 08:41:00,
2013-08-31 09:46:00,52.2,47.2,29.67,WSW,248,12.7,13.0,83,0.00,CLR,,0.00,WeatherDisplay:10.37,2013-08-31 08:46:00,
2013-08-31 09:51:00,52.3,47.0,29.67,West,270,10.4,10.4,82,0.00,CLR,,0.00,WeatherDisplay:10.37,2013-08-31 08:51:00,
2013-08-31 09:56:00,52.3,47.0,29.67,WSW,248,3.5,3.5,82,0.00,CLR,,0.00,WeatherDisplay:10.37,2013-08-31 08:56:00,
2013-08-31 10:01:00,52.5,47.2,29.68,SSW,202,9.2,9.2,82,0.00,CLR,,0.00,WeatherDisplay:10.37,2013-08-31 09:01:00,
2013-08-31 10:06:00,52.5,47.2,29.68,SW,225,5.8,5.8,82,0.00,CLR,,0.00,WeatherDisplay:10.37,2013-08-31 09:06:00,
2013-08-31 10:11:00,52.7,47.4,29.68,SW,225,11.5,11.5,82,0.00,CLR,,0.00,WeatherDisplay:10.37,2013-08-31 09:11:00,
2013-08-31 10:16:00,53.1,47.7,29.69,SW,225,9.2,9.2,82,0.00,CLR,,0.00,WeatherDisplay:10.37,2013-08-31 09:16:00,
2013-08-31 10:21:00,53.4,47.7,29.69,SW,225,5.8,8.8,81,0.00,CLR,,0.00,WeatherDisplay:10.37,2013-08-31 09:21:00,
2013-08-31 10:26:00,54.1,48.4,29.69,NNE,22,12.7,12.7,81,0.00,CLR,,0.00,WeatherDisplay:10.37,2013-08-31 09:26:00,
2013-08-31 10:31:00,54.5,48.5,29.68,NW,315,6.9,7.1,80,0.00,CLR,,0.00,WeatherDisplay:10.37,2013-08-31 09:31:00,
2013-08-31 10:36:00,55.2,49.2,29.68,WSW,248,16.1,16.1,80,0.00,CLR,,0.00,WeatherDisplay:10.37,2013-08-31 09:36:00,
2013-08-31 10:41:00,55.4,49.0,29.68,WSW,248,8.1,8.1,79,0.00,CLR,,0.00,WeatherDisplay:10.37,2013-08-31 09:41:00,
2013-08-31 10:46:00,55.6,48.8,29.68,South,180,5.8,6.2,78,0.00,CLR,,0.00,WeatherDisplay:10.37,2013-08-31 09:46:00,
2013-08-31 10:51:00,55.6,48.8,29.69,WSW,248,4.6,5.3,78,0.00,CLR,,0.00,WeatherDisplay:10.37,2013-08-31 09:51:00,
2013-08-31 10:56:00,55.6,48.8,29.69,North,0,19.6,19.6,78,0.00,CLR,,0.00,WeatherDisplay:10.37,2013-08-31 09:56:00,
2013-08-31 11:01:00,55.2,48.8,29.70,West,270,4.6,4.6,79,0.00,CLR,,0.00,WeatherDisplay:10.37,2013-08-31 10:01:00,
2013-08-31 11:06:00,54.3,48.6,29.70,SW,225,3.5,3.5,81,0.02,RA,,0.02,WeatherDisplay:10.37,2013-08-31 10:06:00,
2013-08-31 11:11:00,54.3,48.9,29.70,West,270,3.5,3.5,82,0.02,RA,,0.02,WeatherDisplay:10.37,2013-08-31 10:11:00,
2013-08-31 11:16:00,54.3,49.9,29.70,SSW,202,3.5,3.5,85,0.02,,,0.02,WeatherDisplay:10.37,2013-08-31 10:16:00,
2013-08-31 11:21:00,54.3,49.9,29.70,WSW,248,3.5,3.5,85,0.02,CLR,,0.02,WeatherDisplay:10.37,2013-08-31 10:21:00,
2013-08-31 11:26:00,54.7,50.6,29.69,WSW,248,6.9,6.9,86,0.02,CLR,,0.02,WeatherDisplay:10.37,2013-08-31 10:26:00,
2013-08-31 11:31:00,55.0,50.9,29.69,South,180,3.5,10.3,86,0.02,CLR,,0.02,WeatherDisplay:10.37,2013-08-31 10:31:00,
2013-08-31 11:36:00,55.2,51.1,29.69,SW,225,8.1,8.9,86,0.02,CLR,,0.02,WeatherDisplay:10.37,2013-08-31 10:36:00,
2013-08-31 11:41:00,55.6,51.1,29.69,WSW,248,6.9,10.6,85,0.02,CLR,,0.02,WeatherDisplay:10.37,2013-08-31 10:41:00,
2013-08-31 11:46:00,55.6,50.8,29.69,West,270,12.7,13.0,84,0.02,CLR,,0.02,WeatherDisplay:10.37,2013-08-31 10:46:00,
2013-08-31 11:51:00,55.6,50.8,29.69,West,270,11.5,13.0,84,0.02,CLR,,0.02,WeatherDisplay:10.37,2013-08-31 10:51:00,
2013-08-31 11:56:00,55.8,50.7,29.69,NW,315,11.5,11.5,83,0.02,CLR,,0.02,WeatherDisplay:10.37,2013-08-31 10:56:00,
2013-08-31 12:01:00,55.9,50.5,29.69,West,270,11.5,11.5,82,0.02,CLR,,0.02,WeatherDisplay:10.37,2013-08-31 11:01:00,
2013-08-31 12:06:00,55.9,50.5,29.70,WNW,292,9.2,9.2,82,0.00,CLR,,0.02,WeatherDisplay:10.37,2013-08-31 11:06:00,
2013-08-31 12:11:00,56.1,50.4,29.70,WSW,248,3.5,6.6,81,0.00,CLR,,0.02,WeatherDisplay:10.37,2013-08-31 11:11:00,
2013-08-31 12:16:00,56.1,50.4,29.70,SSW,202,12.7,12.7,81,0.00,CLR,,0.02,WeatherDisplay:10.37,2013-08-31 11:16:00,
2013-08-31 12:21:00,56.1,50.0,29.69,WSW,248,4.6,5.8,80,0.00,CLR,,0.02,WeatherDisplay:10.37,2013-08-31 11:21:00,
2013-08-31 12:26:00,56.1,49.7,29.70,West,270,10.4,10.4,79,0.00,CLR,,0.02,WeatherDisplay:10.37,2013-08-31 11:26:00,
2013-08-31 12:31:00,56.3,49.5,29.70,West,270,8.1,8.1,78,0.00,CLR,,0.02,WeatherDisplay:10.37,2013-08-31 11:31:00,
2013-08-31 12:36:00,56.8,50.1,29.70,SW,225,11.5,11.5,78,0.00,CLR,,0.02,WeatherDisplay:10.37,2013-08-31 11:36:00,
2013-08-31 12:41:00,56.8,49.7,29.70,West,270,8.1,8.1,77,0.00,CLR,,0.02,WeatherDisplay:10.37,2013-08-31 11:41:00,
2013-08-31 12:46:00,57.0,49.9,29.70,SW,225,15.0,15.0,77,0.00,CLR,,0.02,WeatherDisplay:10.37,2013-08-31 11:46:00,
2013-08-31 12:51:00,57.0,49.2,29.70,SSW,202,8.1,8.1,75,0.00,CLR,,0.02,WeatherDisplay:10.37,2013-08-31 11:51:00,
2013-08-31 12:56:00,56.8,48.6,29.71,WNW,292,6.9,6.9,74,0.00,CLR,,0.02,WeatherDisplay:10.37,2013-08-31 11:56:00,
2013-08-31 13:01:00,56.8,49.0,29.71,West,270,12.7,12.7,75,0.00,CLR,,0.02,WeatherDisplay:10.37,2013-08-31 12:01:00,
2013-08-31 13:06:00,56.8,48.6,29.71,WSW,248,8.1,8.1,74,0.00,CLR,,0.02,WeatherDisplay:10.37,2013-08-31 12:06:00,
2013-08-31 13:11:00,56.8,48.6,29.71,West,270,1.2,5.4,74,0.00,CLR,,0.02,WeatherDisplay:10.37,2013-08-31 12:11:00,
2013-08-31 13:16:00,56.8,48.3,29.71,WNW,292,5.8,5.8,73,0.00,CLR,,0.02,WeatherDisplay:10.37,2013-08-31 12:16:00,
2013-08-31 13:21:00,56.8,47.9,29.72,West,270,4.6,6.1,72,0.00,CLR,,0.02,WeatherDisplay:10.37,2013-08-31 12:21:00,
2013-08-31 13:26:00,56.8,47.5,29.71,SW,225,10.4,10.4,71,0.00,CLR,,0.02,WeatherDisplay:10.37,2013-08-31 12:26:00,
2013-08-31 13:31:00,56.8,47.2,29.71,SW,225,6.3,6.3,70,0.00,CLR,,0.02,WeatherDisplay:10.37,2013-08-31 12:31:00,
2013-08-31 13:36:00,57.0,47.3,29.72,West,270,5.8,5.8,70,0.00,CLR,,0.02,WeatherDisplay:10.37,2013-08-31 12:36:00,
2013-08-31 13:41:00,57.0,46.9,29.72,WNW,292,15.0,15.0,69,0.00,CLR,,0.02,WeatherDisplay:10.37,2013-08-31 12:41:00,
2013-08-31 13:46:00,57.0,46.9,29.72,SSW,202,6.9,6.9,69,0.00,CLR,,0.02,WeatherDisplay:10.37,2013-08-31 12:46:00,
2013-08-31 13:51:00,57.4,47.3,29.72,WNW,292,21.9,21.9,69,0.00,CLR,,0.02,WeatherDisplay:10.37,2013-08-31 12:51:00,
2013-08-31 13:56:00,57.6,47.1,29.72,West,270,17.3,17.3,68,0.00,CLR,,0.02,WeatherDisplay:10.37,2013-08-31 12:56:00,
2013-08-31 14:01:00,57.6,46.7,29.72,WNW,292,13.8,14.1,67,0.00,CLR,,0.02,WeatherDisplay:10.37,2013-08-31 13:01:00,
2013-08-31 14:06:00,57.4,46.1,29.72,West,270,8.1,8.1,66,0.00,CLR,,0.02,WeatherDisplay:10.37,2013-08-31 13:06:00,
2013-08-31 14:11:00,57.4,46.1,29.72,West,270,22.3,22.3,66,0.00,CLR,,0.02,WeatherDisplay:10.37,2013-08-31 13:11:00,
2013-08-31 14:16:00,57.2,45.9,29.72,WSW,248,15.0,15.0,66,0.00,CLR,,0.02,WeatherDisplay:10.37,2013-08-31 13:16:00,
2013-08-31 14:21:00,57.0,46.2,29.72,WSW,248,10.4,14.5,67,0.00,CLR,,0.02,WeatherDisplay:10.37,2013-08-31 13:21:00,
2013-08-31 14:26:00,57.2,45.9,29.73,West,270,12.7,12.7,66,0.00,CLR,,0.02,WeatherDisplay:10.37,2013-08-31 13:26:00,
2013-08-31 14:31:00,57.4,46.1,29.73,West,270,13.2,13.2,66,0.00,CLR,,0.02,WeatherDisplay:10.37,2013-08-31 13:31:00,
2013-08-31 14:36:00,57.0,45.8,29.73,SSW,202,12.7,12.7,66,0.00,CLR,,0.02,WeatherDisplay:10.37,2013-08-31 13:36:00,
2013-08-31 14:41:00,57.2,46.3,29.73,NNE,22,1.2,7.3,67,0.00,CLR,,0.02,WeatherDisplay:10.37,2013-08-31 13:41:00,
2013-08-31 14:46:00,57.4,46.1,29.73,WSW,248,15.0,15.0,66,0.00,CLR,,0.02,WeatherDisplay:10.37,2013-08-31 13:46:00,
2013-08-31 14:51:00,57.4,46.1,29.73,SW,225,5.8,5.8,66,0.00,CLR,,0.02,WeatherDisplay:10.37,2013-08-31 13:51:00,
2013-08-31 14:56:00,57.4,46.1,29.73,WNW,292,20.7,20.7,66,0.00,CLR,,0.02,WeatherDisplay:10.37,2013-08-31 13:56:00,
2013-08-31 15:01:00,57.4,46.1,29.73,West,270,8.1,12.5,66,0.00,CLR,,0.02,WeatherDisplay:10.37,2013-08-31 14:01:00,
2013-08-31 15:06:00,57.7,46.5,29.73,West,270,18.4,18.4,66,0.00,CLR,,0.02,WeatherDisplay:10.37,2013-08-31 14:06:00,
2013-08-31 15:11:00,57.9,46.2,29.74,NNW,338,14.5,14.5,65,0.00,CLR,,0.02,WeatherDisplay:10.37,2013-08-31 14:11:00,
2013-08-31 15:16:00,57.9,46.2,29.73,West,270,10.4,10.6,65,0.00,CLR,,0.02,WeatherDisplay:10.37,2013-08-31 14:16:00,
2013-08-31 15:21:00,57.9,46.2,29.73,WNW,292,11.4,11.4,65,0.00,CLR,,0.02,WeatherDisplay:10.37,2013-08-31 14:21:00,
2013-08-31 15:26:00,57.9,45.8,29.73,West,270,6.9,7.0,64,0.00,CLR,,0.02,WeatherDisplay:10.37,2013-08-31 14:26:00,
2013-08-31 15:31:00,57.9,46.2,29.74,WNW,292,10.5,10.5,65,0.00,CLR,,0.02,WeatherDisplay:10.37,2013-08-31 14:31:00,
2013-08-31 15:36:00,57.9,46.2,29.74,West,270,19.6,19.6,65,0.00,CLR,,0.02,WeatherDisplay:10.37,2013-08-31 14:36:00,
2013-08-31 15:41:00,58.1,46.4,29.74,West,270,7.6,7.6,65,0.00,CLR,,0.02,WeatherDisplay:10.37,2013-08-31 14:41:00,
2013-08-31 15:46:00,58.1,46.0,29.74,WSW,248,10.4,10.4,64,0.00,CLR,,0.02,WeatherDisplay:10.37,2013-08-31 14:46:00,
2013-08-31 15:51:00,57.9,45.8,29.74,West,270,7.2,7.2,64,0.00,CLR,,0.02,WeatherDisplay:10.37,2013-08-31 14:51:00,
2013-08-31 15:56:00,57.9,45.8,29.74,WSW,248,9.2,9.2,64,0.00,CLR,,0.02,WeatherDisplay:10.37,2013-08-31 14:56:00,
2013-08-31 16:01:00,57.9,46.2,29.75,WSW,248,10.4,10.4,65,0.00,CLR,,0.02,WeatherDisplay:10.37,2013-08-31 15:01:00,
2013-08-31 16:06:00,57.7,46.0,29.75,West,270,4.6,4.6,65,0.00,CLR,,0.02,WeatherDisplay:10.37,2013-08-31 15:06:00,
2013-08-31 16:11:00,57.7,46.0,29.74,SSW,202,5.8,5.8,65,0.00,CLR,,0.02,WeatherDisplay:10.37,2013-08-31 15:11:00,
2013-08-31 16:16:00,57.7,46.0,29.74,WSW,248,5.8,5.8,65,0.00,CLR,,0.02,WeatherDisplay:10.37,2013-08-31 15:16:00,
2013-08-31 16:21:00,57.6,45.5,29.74,NNW,338,15.0,15.0,64,0.00,CLR,,0.02,WeatherDisplay:10.37,2013-08-31 15:21:00,
2013-08-31 16:26:00,57.4,45.3,29.75,WNW,292,6.9,6.9,64,0.00,CLR,,0.02,WeatherDisplay:10.37,2013-08-31 15:26:00,
2013-08-31 16:31:00,57.4,45.3,29.74,NW,315,9.4,9.4,64,0.00,CLR,,0.02,WeatherDisplay:10.37,2013-08-31 15:31:00,
2013-08-31 16:36:00,57.4,45.3,29.75,WSW,248,11.5,11.5,64,0.00,CLR,,0.02,WeatherDisplay:10.37,2013-08-31 15:36:00,
2013-08-31 16:41:00,57.4,45.3,29.74,WNW,292,11.5,11.7,64,0.00,CLR,,0.02,WeatherDisplay:10.37,2013-08-31 15:41:00,
2013-08-31 16:46:00,57.4,44.9,29.75,WNW,292,10.4,10.4,63,0.00,CLR,,0.02,WeatherDisplay:10.37,2013-08-31 15:46:00,
2013-08-31 16:51:00,57.4,44.9,29.75,West,270,11.5,12.0,63,0.00,CLR,,0.02,WeatherDisplay:10.37,2013-08-31 15:51:00,
2013-08-31 16:56:00,57.0,44.1,29.75,West,270,18.4,18.4,62,0.00,CLR,,0.02,WeatherDisplay:10.37,2013-08-31 15:56:00,
2013-08-31 17:01:00,57.0,44.1,29.75,SSW,202,13.4,13.4,62,0.00,CLR,,0.02,WeatherDisplay:10.37,2013-08-31 16:01:00,
2013-08-31 17:06:00,57.0,44.1,29.75,WSW,248,5.8,5.8,62,0.00,CLR,,0.02,WeatherDisplay:10.37,2013-08-31 16:06:00,
2013-08-31 17:11:00,56.8,43.5,29.75,West,270,6.9,6.9,61,0.00,CLR,,0.02,WeatherDisplay:10.37,2013-08-31 16:11:00,
2013-08-31 17:16:00,56.8,43.1,29.76,WSW,248,16.1,16.1,60,0.00,CLR,,0.02,WeatherDisplay:10.37,2013-08-31 16:16:00,
2013-08-31 17:21:00,56.8,43.5,29.76,WSW,248,6.9,7.2,61,0.00,CLR,,0.02,WeatherDisplay:10.37,2013-08-31 16:21:00,
2013-08-31 17:26:00,56.5,42.8,29.75,North,0,6.9,6.9,60,0.00,CLR,,0.02,WeatherDisplay:10.37,2013-08-31 16:26:00,
2013-08-31 17:31:00,56.3,43.0,29.76,SW,225,18.4,18.4,61,0.00,CLR,,0.02,WeatherDisplay:10.37,2013-08-31 16:31:00,
2013-08-31 17:36:00,56.3,43.0,29.76,West,270,6.9,6.9,61,0.00,CLR,,0.02,WeatherDisplay:10.37,2013-08-31 16:36:00,
2013-08-31 17:41:00,56.1,42.8,29.76,SSW,202,3.8,3.8,61,0.00,CLR,,0.02,WeatherDisplay:10.37,2013-08-31 16:41:00,
2013-08-31 17:46:00,55.9,42.7,29.75,WNW,292,3.5,3.5,61,0.00,CLR,,0.02,WeatherDisplay:10.37,2013-08-31 16:46:00,
2013-08-31 17:51:00,55.9,43.1,29.75,West,270,10.5,10.5,62,0.00,CLR,,0.02,WeatherDisplay:10.37,2013-08-31 16:51:00,
2013-08-31 17:56:00,55.9,43.1,29.75,WNW,292,11.5,11.5,62,0.00,CLR,,0.02,WeatherDisplay:10.37,2013-08-31 16:56:00,
2013-08-31 18:01:00,55.8,42.9,29.75,WSW,248,9.2,9.6,62,0.00,CLR,,0.02,WeatherDisplay:10.37,2013-08-31 17:01:00,
2013-08-31 18:06:00,55.8,43.3,29.75,WSW,248,3.5,7.2,63,0.00,CLR,,0.02,WeatherDisplay:10.37,2013-08-31 17:06:00,
2013-08-31 18:11:00,55.6,43.2,29.75,NW,315,9.6,9.6,63,0.00,CLR,,0.02,WeatherDisplay:10.37,2013-08-31 17:11:00,
2013-08-31 18:16:00,55.6,43.6,29.75,SW,225,6.9,6.9,64,0.00,CLR,,0.02,WeatherDisplay:10.37,2013-08-31 17:16:00,
2013-08-31 18:21:00,55.6,43.6,29.75,NW,315,12.7,12.7,64,0.00,CLR,,0.02,WeatherDisplay:10.37,2013-08-31 17:21:00,
2013-08-31 18:26:00,55.6,44.0,29.75,WSW,248,16.1,16.1,65,0.00,CLR,,0.02,WeatherDisplay:10.37,2013-08-31 17:26:00,
2013-08-31 18:31:00,55.6,44.0,29.75,West,270,5.8,5.8,65,0.00,CLR,,0.02,WeatherDisplay:10.37,2013-08-31 17:31:00,
2013-08-31 18:36:00,55.2,44.1,29.76,SW,225,12.7,12.7,66,0.00,CLR,,0.02,WeatherDisplay:10.37,2013-08-31 17:36:00,
2013-08-31 18:41:00,55.2,44.1,29.76,WSW,248,16.1,16.5,66,0.00,CLR,,0.02,WeatherDisplay:10.37,2013-08-31 17:41:00,
2013-08-31 18:46:00,55.2,44.1,29.76,WSW,248,8.1,8.1,66,0.00,CLR,,0.02,WeatherDisplay:10.37,2013-08-31 17:46:00,
2013-08-31 18:51:00,55.2,44.4,29.76,West,270,5.8,7.6,67,0.00,CLR,,0.02,WeatherDisplay:10.37,2013-08-31 17:51:00,
2013-08-31 18:56:00,55.2,44.4,29.76,WSW,248,3.5,4.8,67,0.00,CLR,,0.02,WeatherDisplay:10.37,2013-08-31 17:56:00,
2013-08-31 19:01:00,55.2,44.4,29.76,West,270,10.4,10.4,67,0.00,CLR,,0.02,WeatherDisplay:10.37,2013-08-31 18:01:00,
2013-08-31 19:06:00,55.2,44.4,29.76,WSW,248,9.2,9.7,67,0.00,CLR,,0.02,WeatherDisplay:10.37,2013-08-31 18:06:00,
2013-08-31 19:11:00,55.0,44.7,29.75,West,270,10.4,10.4,68,0.00,CLR,,0.02,WeatherDisplay:10.37,2013-08-31 18:11:00,
2013-08-31 19:16:00,55.0,45.1,29.75,West,270,6.9,6.9,69,0.00,CLR,,0.02,WeatherDisplay:10.37,2013-08-31 18:16:00,
2013-08-31 19:21:00,54.9,44.9,29.75,WSW,248,4.6,6.4,69,0.00,CLR,,0.02,WeatherDisplay:10.37,2013-08-31 18:21:00,
2013-08-31 19:26:00,55.0,45.1,29.75,SW,225,4.6,4.6,69,0.00,CLR,,0.02,WeatherDisplay:10.37,2013-08-31 18:26:00,
2013-08-31 19:31:00,54.7,44.7,29.75,West,270,6.5,6.5,69,0.00,CLR,,0.02,WeatherDisplay:10.37,2013-08-31 18:31:00,
2013-08-31 19:36:00,54.7,45.1,29.75,SW,225,11.5,11.5,70,0.00,CLR,,0.02,WeatherDisplay:10.37,2013-08-31 18:36:00,
2013-08-31 19:41:00,54.5,44.9,29.75,ESE,112,4.6,4.6,70,0.00,CLR,,0.02,WeatherDisplay:10.37,2013-08-31 18:41:00,
2013-08-31 19:46:00,54.5,44.9,29.75,WSW,248,4.6,4.6,70,0.00,CLR,,0.02,WeatherDisplay:10.37,2013-08-31 18:46:00,
2013-08-31 19:51:00,54.3,45.1,29.76,West,270,8.1,8.1,71,0.00,CLR,,0.02,WeatherDisplay:10.37,2013-08-31 18:51:00,
2013-08-31 19:56:00,54.3,45.1,29.76,WSW,248,3.5,4.0,71,0.00,CLR,,0.02,WeatherDisplay:10.37,2013-08-31 18:56:00,
2013-08-31 20:01:00,54.1,44.9,29.76,WSW,248,4.0,4.0,71,0.00,CLR,,0.02,WeatherDisplay:10.37,2013-08-31 19:01:00,
2013-08-31 20:06:00,54.1,44.9,29.77,West,270,5.8,6.0,71,0.00,CLR,,0.02,WeatherDisplay:10.37,2013-08-31 19:06:00,
2013-08-31 20:11:00,54.1,44.9,29.77,SSW,202,6.9,6.9,71,0.00,CLR,,0.02,WeatherDisplay:10.37,2013-08-31 19:11:00,
2013-08-31 20:16:00,54.0,45.1,29.77,WNW,292,8.1,8.1,72,0.00,CLR,,0.02,WeatherDisplay:10.37,2013-08-31 19:16:00,
2013-08-31 20:21:00,54.0,45.1,29.77,WSW,248,5.1,5.1,72,0.00,CLR,,0.02,WeatherDisplay:10.37,2013-08-31 19:21:00,
2013-08-31 20:26:00,54.0,45.5,29.77,SW,225,11.5,11.5,73,0.00,CLR,,0.02,WeatherDisplay:10.37,2013-08-31 19:26:00,
2013-08-31 20:31:00,53.8,45.3,29.77,SW,225,3.6,3.6,73,0.00,CLR,,0.02,WeatherDisplay:10.37,2013-08-31 19:31:00,
2013-08-31 20:36:00,53.8,45.7,29.77,WSW,248,15.0,15.0,74,0.00,CLR,,0.02,WeatherDisplay:10.37,2013-08-31 19:36:00,
2013-08-31 20:41:00,53.8,45.7,29.76,West,270,5.6,5.6,74,0.00,CLR,,0.02,WeatherDisplay:10.37,2013-08-31 19:41:00,
2013-08-31 20:46:00,53.8,45.7,29.76,SSW,202,11.5,11.5,74,0.00,CLR,,0.02,WeatherDisplay:10.37,2013-08-31 19:46:00,
2013-08-31 20:51:00,53.4,45.3,29.76,WSW,248,12.7,12.7,74,0.00,CLR,,0.02,WeatherDisplay:10.37,2013-08-31 19:51:00,
2013-08-31 20:56:00,53.4,45.3,29.77,WSW,248,5.8,5.8,74,0.00,CLR,,0.02,WeatherDisplay:10.37,2013-08-31 19:56:00,
2013-08-31 21:01:00,53.4,45.3,29.77,NNE,22,11.5,11.5,74,0.00,CLR,,0.02,WeatherDisplay:10.37,2013-08-31 20:01:00,
2013-08-31 21:06:00,53.4,45.7,29.77,West,270,5.8,5.8,75,0.00,CLR,,0.02,WeatherDisplay:10.37,2013-08-31 20:06:00,
2013-08-31 21:11:00,53.2,45.5,29.77,NW,315,6.0,6.0,75,0.00,CLR,,0.02,WeatherDisplay:10.37,2013-08-31 20:11:00,
2013-08-31 21:16:00,53.2,45.5,29.77,West,270,4.6,5.7,75,0.00,CLR,,0.02,WeatherDisplay:10.37,2013-08-31 20:16:00,
2013-08-31 21:21:00,53.2,45.5,29.77,West,270,4.6,4.6,75,0.00,CLR,,0.02,WeatherDisplay:10.37,2013-08-31 20:21:00,
2013-08-31 21:26:00,53.2,45.5,29.77,WSW,248,3.5,4.0,75,0.00,CLR,,0.02,WeatherDisplay:10.37,2013-08-31 20:26:00,
2013-08-31 21:31:00,53.2,45.9,29.77,SW,225,6.9,10.5,76,0.00,CLR,,0.02,WeatherDisplay:10.37,2013-08-31 20:31:00,
2013-08-31 21:36:00,53.1,45.7,29.78,West,270,4.6,4.6,76,0.00,CLR,,0.02,WeatherDisplay:10.37,2013-08-31 20:36:00,
2013-08-31 21:41:00,53.1,45.7,29.78,WSW,248,9.8,9.8,76,0.00,CLR,,0.02,WeatherDisplay:10.37,2013-08-31 20:41:00,
2013-08-31 21:46:00,52.9,45.5,29.78,WSW,248,12.7,12.7,76,0.00,CLR,,0.02,WeatherDisplay:10.37,2013-08-31 20:46:00,
2013-08-31 21:51:00,53.1,45.7,29.78,West,270,9.4,9.4,76,0.00,CLR,,0.02,WeatherDisplay:10.37,2013-08-31 20:51:00,
2013-08-31 21:56:00,53.1,45.7,29.78,SW,225,4.6,4.6,76,0.00,CLR,,0.02,WeatherDisplay:10.37,2013-08-31 20:56:00,
2013-08-31 22:01:00,53.2,45.9,29.78,WNW,292,3.5,3.5,76,0.00,CLR,,0.02,WeatherDisplay:10.37,2013-08-31 21:01:00,
2013-08-31 22:06:00,53.2,45.9,29.77,SW,225,11.5,11.5,76,0.00,CLR,,0.02,WeatherDisplay:10.37,2013-08-31 21:06:00,
2013-08-31 22:11:00,53.2,46.2,29.77,SW,225,13.4,13.4,77,0.00,CLR,,0.02,WeatherDisplay:10.37,2013-08-31 21:11:00,
2013-08-31 22:16:00,53.2,46.2,29.77,WSW,248,13.8,13.8,77,0.00,CLR,,0.02,WeatherDisplay:10.37,2013-08-31 21:16:00,
2013-08-31 22:21:00,53.2,46.2,29.77,WSW,248,9.6,9.6,77,0.00,CLR,,0.02,WeatherDisplay:10.37,2013-08-31 21:21:00,
2013-08-31 22:26:00,53.2,46.2,29.77,SSW,202,4.6,4.7,77,0.00,CLR,,0.02,WeatherDisplay:10.37,2013-08-31 21:26:00,
2013-08-31 22:31:00,53.2,46.2,29.77,SSW,202,8.1,8.1,77,0.00,CLR,,0.02,WeatherDisplay:10.37,2013-08-31 21:31:00,
2013-08-31 22:36:00,53.2,46.2,29.77,WSW,248,10.4,10.4,77,0.00,CLR,,0.02,WeatherDisplay:10.37,2013-08-31 21:36:00,
2013-08-31 22:41:00,53.2,46.6,29.77,West,270,5.8,6.0,78,0.00,CLR,,0.02,WeatherDisplay:10.37,2013-08-31 21:41:00,
2013-08-31 22:46:00,53.2,46.6,29.77,SW,225,5.8,5.8,78,0.00,CLR,,0.02,WeatherDisplay:10.37,2013-08-31 21:46:00,
2013-08-31 22:51:00,53.2,46.6,29.77,SW,225,10.4,10.4,78,0.00,CLR,,0.02,WeatherDisplay:10.37,2013-08-31 21:51:00,
2013-08-31 22:56:00,53.2,46.6,29.77,WSW,248,5.8,5.8,78,0.00,CLR,,0.02,WeatherDisplay:10.37,2013-08-31 21:56:00,
2013-08-31 23:01:00,53.2,46.6,29.77,SW,225,12.7,12.7,78,0.00,CLR,,0.02,WeatherDisplay:10.37,2013-08-31 22:01:00,
2013-08-31 23:06:00,53.2,46.6,29.77,South,180,10.4,10.4,78,0.00,CLR,,0.02,WeatherDisplay:10.37,2013-08-31 22:06:00,
2013-08-31 23:11:00,53.2,46.6,29.77,WSW,248,2.3,7.2,78,0.00,CLR,,0.02,WeatherDisplay:10.37,2013-08-31 22:11:00,
2013-08-31 23:16:00,53.2,46.6,29.77,SW,225,2.3,4.1,78,0.00,CLR,,0.02,WeatherDisplay:10.37,2013-08-31 22:16:00,
2013-08-31 23:21:00,53.2,46.6,29.77,West,270,2.9,2.9,78,0.00,CLR,,0.02,WeatherDisplay:10.37,2013-08-31 22:21:00,
2013-08-31 23:26:00,52.9,46.2,29.76,WSW,248,11.5,11.5,78,0.00,CLR,,0.02,WeatherDisplay:10.37,2013-08-31 22:26:00,
2013-08-31 23:31:00,52.9,46.2,29.77,SW,225,9.2,9.4,78,0.00,CLR,,0.02,WeatherDisplay:10.37,2013-08-31 22:31:00,
2013-08-31 23:36:00,52.9,46.2,29.76,WSW,248,10.4,10.4,78,0.00,CLR,,0.02,WeatherDisplay:10.37,2013-08-31 22:36:00,
2013-08-31 23:41:00,52.9,46.2,29.77,SW,225,8.1,8.1,78,0.00,CLR,,0.02,WeatherDisplay:10.37,2013-08-31 22:41:00,
2013-08-31 23:46:00,52.9,46.2,29.77,WSW,248,16.1,16.1,78,0.00,CLR,,0.02,WeatherDisplay:10.37,2013-08-31 22:46:00,
2013-08-31 23:51:00,52.9,46.5,29.77,WSW,248,11.8,11.8,79,0.00,CLR,,0.02,WeatherDisplay:10.37,2013-08-31 22:51:00,
2013-08-31 23:56:00,52.7,46.4,29.77,West,270,12.7,12.7,79,0.00,CLR,,0.02,WeatherDisplay:10.37,2013-08-31 22:56:00,